This is the latest recevied weather packets stored in our database for station/object KD2DXJ. If no packets are shown the sender has not sent any weather packets the latest 10 day(s).
| Time | Temp. | Humidity | Pressure | Rain* | Wind** | Luminosity | Snow |
|---|---|---|---|---|---|---|---|
| 1777768404 | 5° C | 83% | 1013.1 hPa | 0 mm | - | 0 W/m² | - |
| 1777768101 | 5° C | 83% | 1013 hPa | 0 mm | - | 0 W/m² | - |
| 1777767798 | 5° C | 84% | 1012.9 hPa | 0 mm | - | 0 W/m² | - |
| 1777767495 | 5° C | 83% | 1012.9 hPa | 0 mm | - | 0 W/m² | - |
| 1777767191 | 5° C | 83% | 1012.9 hPa | 0 mm | - | 1 W/m² | - |
| 1777766889 | 5° C | 84% | 1012.7 hPa | 0 mm | - | 1 W/m² | - |
| 1777766586 | 5° C | 84% | 1012.7 hPa | 0 mm | - | 2 W/m² | - |
| 1777766283 | 5° C | 82% | 1012.8 hPa | 0 mm | - | 3 W/m² | - |
| 1777765981 | 5° C | 83% | 1012.8 hPa | 0 mm | - | 5 W/m² | - |
| 1777765677 | 5.56° C | 83% | 1012.7 hPa | 0 mm | - | 6 W/m² | - |
| 1777765374 | 5.56° C | 82% | 1012.7 hPa | 0 mm | - | 7 W/m² | - |
| 1777765070 | 5.56° C | 81% | 1012.8 hPa | 0 mm | - | 9 W/m² | - |
| 1777764767 | 5.56° C | 82% | 1012.8 hPa | 0 mm | - | 11 W/m² | - |
| 1777764463 | 5.56° C | 81% | 1012.7 hPa | 0 mm | - | 15 W/m² | - |
| 1777764160 | 5.56° C | 81% | 1012.9 hPa | 0 mm | - | 19 W/m² | - |
| 1777763856 | 5.56° C | 82% | 1013 hPa | 0 mm | - | 21 W/m² | - |
| 1777763554 | 5.56° C | 81% | 1013.1 hPa | 0 mm | - | 24 W/m² | - |
| 1777763253 | 5.56° C | 82% | 1013 hPa | 0 mm | - | 29 W/m² | - |
| 1777762951 | 5.56° C | 82% | 1012.8 hPa | 0 mm | - | 32 W/m² | - |
| 1777762646 | 5.56° C | 81% | 1012.9 hPa | 0 mm | - | 37 W/m² | - |
| 1777762344 | 5.56° C | 82% | 1012.9 hPa | 0 mm | - | 39 W/m² | - |
| 1777762040 | 5.56° C | 81% | 1012.9 hPa | 0 mm | - | 41 W/m² | - |
| 1777761737 | 5.56° C | 84% | 1012.7 hPa | 0 mm | - | 43 W/m² | - |
| 1777761434 | 5.56° C | 85% | 1012.9 hPa | 0 mm | - | 45 W/m² | - |
| 1777761132 | 5.56° C | 84% | 1012.8 hPa | 0 mm | - | 45 W/m² | - |
* Rain latest hour (hover to see other rain measurements)
** Current wind speed in m/s (hover to see current wind gust speed)